Location: Unspecified
(34.4950°S, 58.5160°W)
Time: 14:31:34
(UTC+00:00)

Cosmos 1655 Rocket - Pass Details

Date: 08 July 2022
Orbit: 971 x 1005 km, 83.0° (Epoch: 11 August)

Event Time Altitude Azimuth Distance (km) Brightness Sun altitude
Rises 23:04:01 0° 340° (NNW) 3,716 7.5 -25.4°
Reaches altitude 10° 23:06:38 10° 334° (NNW) 2,776 6.8 -25.9°
Maximum altitude 23:12:46 48° 260° (W) 1,295 4.9 -27.1°
Drops below altitude 10° 23:19:00 10° 186° (S) 2,806 6.4 -28.4°
Sets 23:21:40 0° 180° (S) 3,760 7.0 -28.9°
